Location: Asheville, NC
(35.6000°N, 82.5500°W)
Time: 03:24:27
(UTC-04:00)

Vanguard 2 Rocket - Pass Details

Date: 13 March 2018
Orbit: 553 x 3328 km, 32.9° (Epoch: 19 June)

Event Time Altitude Azimuth Distance (km) Brightness Sun altitude
Rises 23:04:37 0° 274° (W) 3,441 10.5 -41.3°
Reaches altitude 10° 23:06:49 10° 267° (W) 2,733 9.8 -41.7°
Enters shadow 23:09:02 23° 253° (WSW) 2,157 9.0 -42.0°
